Theta_e
312 310 309 309 309 308 305 304 299 296 298 299 299 298 298 302 306 306 305 304 303 304 301 299 299 300 300 301 303 300 301 301 301 304 306 307 305 306 305 305 304 305 305 306 305 306 307 306 306 309 308 307 307 306
313 311 309 309 309 307 305 304 297 296 298 299 299 298 298 304 306 307 306 307 304 302 301 299 299 299 298 299 301 300 301 302 303 304 305 306 306 305 305 305 303 305 305 307 306 307 306 306 307 306 305 306 305 303
313 312 310 309 309 307 306 304 297 296 299 299 299 298 299 304 304 303 304 305 304 301 300 298 298 298 298 297 298 302 300 301 300 301 304 305 305 304 305 305 304 303 303 304 306 306 305 305 306 305 305 303 301 300
313 312 310 309 308 306 306 304 296 296 298 299 299 298 298 304 305 304 302 304 303 303 304 300 297 298 298 298 298 298 298 298 299 299 303 304 304 301 304 302 303 304 303 304 305 305 303 303 303 304 301 299 299 299
312 312 310 309 308 306 305 302 295 297 299 299 299 298 298 302 305 305 305 304 304 302 304 300 297 297 298 298 298 298 298 299 300 301 302 303 301 300 300 299 301 301 304 305 305 305 304 304 303 300 299 299 298 298
312 311 310 309 307 306 305 299 296 298 299 299 299 299 298 299 304 305 305 305 304 300 300 302 297 296 297 297 297 297 298 298 300 301 302 300 297 299 303 303 303 302 301 303 303 301 300 300 299 299 298 297 297 297
311 310 310 309 307 306 305 297 296 299 299 299 299 299 298 299 302 304 305 306 305 301 299 300 300 296 296 296 297 297 297 298 299 301 300 300 299 298 301 302 303 301 300 299 299 299 300 299 300 297 296 297 297 298
310 310 309 308 307 306 303 296 298 299 298 299 299 299 298 299 301 303 306 305 306 304 299 303 301 297 296 298 299 296 298 298 298 300 298 298 297 297 300 301 300 299 299 298 299 299 300 299 298 297 297 297 299 299
309 309 308 307 306 304 298 297 299 299 298 298 299 299 299 299 301 301 304 304 304 302 303 301 303 304 295 298 298 296 297 301 297 300 299 298 300 301 301 301 300 298 298 299 299 299 299 298 297 297 297 298 298 299
308 308 307 306 305 299 296 299 299 298 298 297 299 299 299 299 300 301 302 296 297 299 298 301 300 300 298 298 298 299 298 301 302 300 297 298 300 300 300 300 299 298 298 299 299 298 298 298 297 297 298 298 298 298
307 306 306 304 298 297 299 298 298 297 298 298 299 299 298 299 301 301 299 299 299 303 301 301 300 298 296 300 301 298 300 299 301 301 299 302 302 301 299 299 297 297 298 299 299 299 299 299 298 297 297 297 297 297
306 306 304 298 297 297 296 297 298 298 300 299 299 299 299 300 300 300 301 301 303 303 300 301 298 298 296 297 299 296 300 295 302 297 298 301 304 298 296 297 297 297 298 299 298 298 298 298 297 297 296 296 296 297
305 302 298 297 297 297 299 299 299 299 300 298 298 299 299 297 300 302 304 305 304 302 297 297 298 296 295 298 298 298 299 300 296 298 301 303 300 295 296 296 296 297 298 298 298 298 298 297 297 296 296 296 297 297
301 298 297 297 298 299 300 300 300 300 299 299 298 300 299 302 302 304 306 306 302 299 297 300 297 300 298 299 299 302 300 298 300 300 302 303 300 296 295 296 296 296 297 297 297 296 296 296 296 296 295 295 296 296
297 297 298 299 299 299 300 300 300 299 299 298 298 302 302 301 298 298 300 299 298 298 299 300 298 299 299 299 300 298 297 300 301 303 305 301 297 296 295 296 297 297 297 298 297 296 296 296 295 295 295 295 295 293
298 299 299 299 300 300 300 300 300 299 298 299 297 299 298 299 297 295 297 298 298 299 300 300 300 301 302 303 298 301 301 301 305 303 301 297 296 295 296 296 297 298 298 297 296 295 296 296 296 296 296 294 293 292
299 299 299 300 301 301 301 302 298 298 298 296 297 296 298 299 301 298 297 297 298 300 302 302 302 304 299 301 300 301 302 304 303 298 297 296 296 296 296 297 297 298 297 296 296 296 296 296 295 295 294 293 292 293
299 299 300 301 301 300 297 298 297 297 297 296 298 297 296 297 297 296 297 297 299 301 299 303 297 297 302 301 302 302 298 298 296 296 296 296 297 297 297 297 298 297 296 296 295 294 294 295 294 294 293 292 291 290
299 299 300 300 301 298 298 297 296 297 296 296 295 296 296 296 296 297 296 297 299 299 296 296 301 303 302 300 303 299 298 296 295 295 295 296 297 298 298 298 298 296 296 295 294 293 293 293 293 292 291 291 290 288
298 300 300 299 299 299 297 295 297 295 296 295 295 295 295 295 295 296 296 296 297 296 297 299 301 299 298 297 297 297 297 297 297 294 294 295 297 299 299 298 296 296 295 294 295 294 293 293 292 291 290 289 288 288
298 299 298 298 298 297 295 293 294 294 293 295 295 295 295 294 294 295 295 295 296 298 300 297 296 295 295 296 296 296 297 297 297 297 296 295 297 299 298 297 296 295 295 295 295 295 294 294 292 290 288 288 288 288
296 298 298 298 298 294 293 293 294 294 294 295 294 295 296 297 296 295 295 296 297 299 297 297 296 295 296 296 296 297 297 297 297 297 298 298 298 298 298 297 296 296 295 295 295 294 294 294 292 290 288 288 288 288
297 298 298 298 294 293 291 292 293 293 297 294 294 296 296 297 295 295 298 297 298 297 298 297 296 297 296 296 298 298 298 298 298 299 299 299 299 299 298 297 297 296 296 295 295 294 294 293 292 290 288 287 287 287
298 299 297 295 293 293 291 292 292 293 294 295 295 294 294 293 294 296 299 298 297 297 297 297 296 297 296 297 299 298 299 300 300 299 299 299 298 297 297 297 296 296 296 295 295 294 293 292 291 291 289 287 286 286
297 294 295 292 291 292 292 293 293 294 294 294 294 292 292 290 296 298 297 298 297 298 297 296 297 297 297 298 299 299 299 299 299 299 298 298 298 297 297 296 295 295 294 294 294 293 292 291 291 290 288 287 286 285
296 291 294 293 292 294 293 293 293 293 293 293 292 289 289 293 296 298 297 295 295 295 297 296 297 297 297 299 299 299 298 297 298 298 296 295 295 295 294 294 293 292 292 292 292 291 290 288 287 286 285 285 284 284
293 291 289 290 291 291 292 292 292 294 292 292 290 289 292 295 297 296 290 290 291 293 295 295 297 298 298 298 298 297 297 296 295 295 294 293 293 292 292 292 292 291 289 288 287 286 286 286 285 285 284 283 282 282
289 288 291 290 290 290 291 292 293 294 294 291 291 293 295 298 298 287 287 288 289 291 293 294 295 299 298 298 297 296 295 294 294 293 292 292 292 292 292 289 288 287 287 286 286 286 285 285 284 283 283 282 282 282
289 289 290 288 288 288 288 292 293 290 289 290 296 294 292 286 286 286 287 288 288 290 292 294 295 297 296 296 295 294 295 294 293 292 292 292 291 288 288 287 287 287 287 286 285 285 284 284 283 283 283 282 282 282
290 289 291 288 286 287 283 283 284 286 287 288 288 287 285 284 285 286 287 287 288 289 291 292 295 295 295 295 295 294 292 292 292 292 292 291 288 287 287 287 287 286 285 285 284 284 283 283 283 283 282 282 281 281
289 288 285 285 283 281 281 283 285 286 286 286 287 287 285 285 286 286 287 288 289 290 291 292 294 294 295 295 294 292 291 291 290 289 288 287 287 287 287 287 286 285 285 284 283 283 283 282 282 282 282 281 281 280
286 287 286 285 283 282 284 284 285 285 285 286 284 285 285 286 286 286 288 289 290 291 292 293 294 293 292 292 291 291 290 289 288 287 287 287 287 287 286 285 285 284 284 283 282 282 282 282 282 281 281 280 280 280
284 284 283 283 283 283 283 285 286 285 285 285 283 284 284 285 287 287 288 289 290 291 292 292 292 291 290 290 289 288 287 287 286 287 287 286 286 286 285 285 284 283 283 282 282 282 282 281 281 281 280 280 280 280
Wind_Speed
26 28 26 22 25 24 21 19 21 18 14 12 12 12 12 13 12 22 29 25 19 7 5 5 6 3 3 3 2 6 4 3 3 2 1 1 2 1 2 1 3 4 4 3 2 3 3 11 7 4 4 2 4 4
29 29 28 25 26 25 23 21 19 18 14 14 13 12 11 7 8 20 26 22 23 4 4 5 7 11 10 6 2 8 2 2 2 3 2 2 3 1 2 2 4 4 3 2 4 1 3 13 2 0 1 3 3 3
30 30 29 27 28 27 25 22 19 19 14 15 15 12 11 10 11 6 12 28 25 8 7 5 5 8 8 8 9 4 3 3 2 4 0 1 4 2 3 4 3 5 6 4 3 4 10 10 7 6 5 4 3 4
32 30 30 30 30 28 28 23 20 20 15 16 16 15 13 13 19 12 12 30 18 4 4 4 8 8 7 8 10 9 5 5 4 4 3 2 3 3 2 2 4 2 10 7 8 9 3 9 9 7 6 4 6 7
35 33 32 32 32 27 27 24 21 20 17 17 17 18 16 15 14 23 16 24 24 6 1 1 6 7 7 8 9 9 7 5 4 3 3 3 1 2 2 3 8 12 10 6 3 4 3 4 8 7 5 7 7 6
36 35 35 33 31 30 26 25 22 18 18 18 17 18 18 18 13 17 14 25 27 14 3 2 4 7 8 7 7 8 9 6 3 3 3 3 2 3 3 4 9 14 14 15 3 9 6 9 6 5 4 4 4 6
39 36 37 34 31 30 27 25 23 19 20 19 18 18 18 18 17 20 7 7 29 16 3 2 3 5 10 9 6 4 6 4 4 2 4 3 4 4 3 6 5 12 15 12 9 11 5 6 4 5 5 4 5 6
40 39 38 34 34 30 27 26 22 20 20 19 18 18 17 18 18 23 18 11 22 24 6 3 2 4 12 5 6 7 4 4 4 3 2 4 4 5 6 15 8 9 14 14 14 9 4 7 6 6 6 3 2 5
41 41 37 37 34 31 28 25 22 21 21 19 17 15 16 17 9 13 21 17 28 15 5 6 6 4 14 5 4 5 4 3 3 3 4 4 5 8 10 12 17 18 18 15 16 12 8 7 8 7 6 3 3 4
41 40 38 37 34 31 30 24 25 24 22 20 20 13 9 10 17 13 14 16 11 9 8 5 4 4 10 9 5 6 4 2 3 3 5 5 6 23 19 16 13 20 18 17 19 14 13 11 11 9 7 5 5 5
40 39 37 35 34 32 29 28 28 25 24 27 17 10 11 25 19 11 8 10 12 5 11 12 12 6 11 4 4 7 3 3 3 3 3 3 5 4 12 24 16 20 20 19 14 9 12 10 11 11 8 6 6 7
40 39 36 36 34 32 30 30 32 36 26 32 17 19 22 9 8 7 7 6 7 9 13 13 12 8 8 6 4 6 4 2 4 6 3 4 4 10 9 21 20 22 21 19 14 10 12 10 9 9 8 7 8 7
39 36 35 35 34 33 31 33 37 39 32 35 18 11 10 11 11 9 12 6 7 7 12 16 6 11 7 6 4 3 6 5 5 4 5 6 4 10 17 21 21 22 22 18 14 11 11 10 9 9 8 9 8 7
34 35 34 31 32 33 35 37 40 42 32 18 11 10 8 8 9 6 7 8 7 13 25 28 12 5 6 5 4 6 3 4 4 5 7 4 15 17 23 26 27 26 23 18 15 13 11 11 9 8 7 7 7 7
33 30 30 31 31 34 36 39 45 55 19 11 10 9 9 5 2 1 5 13 14 34 34 19 7 6 3 4 4 4 5 6 7 6 3 6 17 24 28 27 30 28 22 18 15 14 13 12 11 10 10 10 9 9
24 23 29 29 31 35 37 42 50 46 13 11 10 4 5 5 3 5 8 10 24 35 30 14 5 4 5 4 6 10 7 7 4 4 6 13 20 25 32 31 30 25 22 19 16 15 14 12 11 10 9 9 8 8
22 26 26 23 25 28 41 43 30 13 14 8 5 11 12 8 12 12 19 18 34 36 9 5 9 9 5 5 6 6 6 4 6 10 12 17 25 29 34 32 27 22 20 18 15 14 12 10 10 10 9 9 10 11
28 25 21 21 31 51 39 25 9 7 5 4 5 9 12 9 8 13 18 27 25 27 10 4 9 7 6 7 4 5 7 8 9 12 16 21 26 30 32 30 26 21 18 17 15 13 13 12 11 9 8 8 8 9
26 24 30 49 54 30 7 9 4 3 3 7 7 11 8 5 14 15 22 36 25 21 7 6 4 5 4 4 2 8 18 19 14 15 18 23 28 31 29 26 22 19 17 16 14 12 9 9 8 9 8 8 6 6
23 32 54 52 40 11 4 3 5 5 3 6 9 10 5 4 8 13 22 32 22 9 3 4 3 2 3 5 9 9 21 22 27 26 22 25 29 29 25 25 23 20 17 13 12 11 10 9 7 7 7 7 7 6
35 44 45 34 14 6 5 5 5 4 6 4 10 13 4 11 11 12 13 21 10 5 3 7 5 6 7 6 8 10 20 24 28 26 36 35 32 29 25 23 22 22 19 15 13 11 10 8 7 7 8 8 8 8
30 45 37 25 4 3 6 3 8 10 4 4 11 10 5 3 6 9 15 4 6 16 7 6 10 10 8 9 13 17 21 25 24 26 32 35 36 31 26 23 22 19 16 13 11 10 9 8 8 8 9 10 11 11
36 29 25 6 5 4 5 11 4 6 4 6 7 4 3 4 8 18 4 8 8 17 20 11 12 12 12 16 17 19 21 21 21 24 28 30 29 27 24 21 18 16 15 12 10 10 9 8 8 9 10 12 13 14
28 8 5 5 4 3 7 5 6 6 6 5 4 4 2 2 9 2 4 5 10 15 20 17 19 20 20 20 23 23 22 19 20 25 23 24 24 21 19 17 17 15 13 12 12 11 10 10 10 10 11 12 13 15
6 6 8 3 6 5 3 4 3 2 3 3 4 3 3 4 3 4 3 4 21 26 26 24 25 26 27 28 26 23 22 21 24 25 23 20 20 19 18 17 15 13 12 11 11 10 9 8 9 9 10 11 13 15
4 4 4 5 5 5 6 5 6 5 4 3 2 3 3 3 4 5 3 9 19 32 40 38 36 30 28 29 31 28 26 23 20 20 20 19 16 13 14 15 15 13 12 10 9 8 7 7 8 8 10 12 14 14
4 3 4 3 3 8 5 4 5 3 4 5 5 5 4 4 6 2 3 8 11 24 33 35 34 31 30 29 27 26 25 22 18 16 17 18 16 15 13 13 13 11 10 8 7 7 7 7 7 8 9 10 10 10
3 8 7 7 4 3 4 3 4 6 4 6 8 6 8 6 1 1 3 6 9 19 28 31 29 26 24 28 27 26 24 20 18 17 18 18 17 17 15 13 11 10 8 6 6 5 5 5 6 6 5 5 7 9
3 7 6 4 3 3 1 2 3 3 6 9 3 3 3 1 2 2 4 7 12 19 27 29 28 29 29 30 28 24 20 20 23 25 24 23 22 18 15 13 10 8 6 6 5 4 4 3 2 1 3 5 6 8
3 5 3 3 3 2 1 1 3 6 5 6 4 5 4 2 1 3 6 11 16 22 27 30 32 30 33 32 29 25 23 23 22 22 24 22 18 16 13 11 8 7 6 4 3 2 1 1 1 2 4 5 7 7
8 5 4 3 2 1 5 10 11 10 5 4 6 6 4 3 4 4 9 13 17 21 25 30 33 32 31 30 30 29 28 26 23 19 16 16 13 13 11 9 8 6 5 4 3 3 3 3 2 3 3 4 4 5
4 3 4 3 2 6 7 2 3 3 2 2 3 4 3 3 2 5 12 16 21 22 24 27 30 31 30 29 29 28 27 26 22 18 16 14 13 11 9 8 7 6 6 6 6 6 5 4 3 4 4 4 4 5
5 4 5 6 3 3 5 4 2 2 3 2 2 3 2 2 2 7 15 18 21 25 28 28 27 27 28 29 28 23 23 21 19 17 15 13 10 9 8 8 7 7 7 8 7 6 5 5 5 5 5 4 4 4
Wind_Direction
267 262 263 269 268 265 283 291 291 285 280 252 255 255 258 268 263 223 233 232 200 209 268 263 241 257 209 204 214 143 156 188 194 241 260 338 284 95 262 196 211 206 187 204 199 241 255 151 133 224 71 150 194 199
262 260 259 264 264 263 273 282 283 275 271 249 244 243 248 251 202 201 214 210 196 226 242 274 237 236 219 204 141 179 341 161 209 233 211 303 241 223 315 278 208 246 232 322 230 26 91 181 294 260 308 256 204 227
260 260 254 260 261 263 260 276 275 274 253 244 246 234 234 203 195 183 224 190 179 217 266 239 224 222 222 209 198 205 218 192 190 179 331 339 257 210 247 234 248 234 212 239 306 187 219 216 224 265 243 238 209 256
255 257 251 253 251 260 259 271 270 271 244 230 237 230 227 203 198 190 197 184 179 189 249 212 224 212 224 214 204 209 240 214 186 169 227 247 266 197 278 323 254 356 156 220 252 261 232 234 215 224 215 229 261 279
250 250 247 251 250 251 261 267 264 267 240 230 227 227 216 217 195 203 196 202 202 215 331 227 221 222 206 204 205 213 216 182 181 183 210 228 251 234 207 285 239 194 200 198 244 142 177 105 180 192 207 261 278 293
245 245 242 247 248 249 258 263 257 254 237 228 227 227 220 217 211 196 220 221 215 214 339 246 237 199 178 166 168 182 187 197 200 221 230 225 232 228 262 253 257 218 224 219 218 144 137 145 169 227 235 237 270 289
239 239 238 242 242 249 258 258 254 238 229 228 225 224 222 217 222 193 186 193 204 203 236 256 216 204 179 160 166 178 196 217 198 226 230 241 198 204 251 246 254 210 204 196 171 156 156 187 206 197 218 226 277 290
236 235 236 238 239 245 250 248 247 229 222 226 221 224 220 228 235 224 201 198 191 194 233 237 174 184 182 184 169 187 200 205 216 231 217 218 169 221 253 242 228 201 186 187 185 188 169 166 193 196 203 227 279 290
231 231 232 236 237 242 241 239 227 221 218 217 212 211 214 229 234 223 212 193 184 191 209 192 185 185 170 170 152 156 194 222 189 234 220 190 205 223 230 222 206 192 185 189 183 185 186 194 194 196 194 212 262 279
231 229 231 234 238 238 237 225 216 212 210 205 193 180 192 206 209 196 198 179 209 221 227 222 154 141 169 172 162 143 196 239 236 201 155 226 253 242 234 221 206 194 189 177 171 187 198 204 202 196 196 215 248 277
228 231 234 237 239 238 228 215 210 202 198 194 198 183 175 158 160 189 183 183 193 206 208 185 185 150 181 156 155 201 188 170 239 163 224 246 262 232 220 207 195 188 186 185 186 198 205 199 195 187 197 223 246 261
228 231 232 237 240 234 222 213 203 195 194 189 176 138 151 189 195 203 189 193 200 202 169 174 162 143 152 152 136 179 185 174 233 143 234 253 242 215 190 181 180 177 176 173 187 183 172 180 186 187 199 222 237 249
228 232 235 239 237 230 219 210 202 196 196 174 177 165 165 207 215 210 187 190 185 165 155 148 128 139 135 169 121 164 186 207 124 213 234 234 164 190 174 172 171 171 174 181 179 177 180 177 181 192 215 230 245 257
227 235 239 236 234 232 222 210 200 196 174 179 172 184 200 193 215 199 217 180 140 148 151 156 126 139 136 160 152 175 157 155 224 232 233 229 195 185 177 175 168 171 179 181 184 185 183 194 207 218 232 247 256 263
230 234 235 233 228 223 216 205 196 185 173 182 181 204 205 203 175 204 176 140 157 157 148 141 107 131 141 141 191 115 169 236 219 235 214 177 176 178 169 170 176 173 175 181 183 183 189 192 198 208 220 236 251 262
223 230 231 226 222 218 207 199 194 183 194 188 192 180 110 178 195 163 195 168 156 154 149 141 137 178 188 174 165 210 184 216 234 218 198 173 169 171 169 176 175 176 180 183 188 185 187 192 202 211 226 239 250 257
208 216 221 213 209 203 190 176 170 178 184 200 169 169 178 282 214 174 189 186 164 159 165 144 168 196 119 199 202 190 205 209 179 191 188 178 174 172 174 174 175 177 181 185 184 185 187 191 201 218 231 250 254 269
199 205 198 182 167 149 148 162 152 158 176 153 147 159 173 241 238 168 179 174 172 182 151 169 129 193 205 187 214 200 195 180 167 174 175 170 174 172 173 174 176 180 181 183 187 191 200 206 215 224 230 247 267 277
198 180 168 160 161 147 130 160 148 136 108 142 126 143 160 226 237 209 179 179 182 177 138 172 205 195 206 216 199 173 176 173 169 160 162 166 170 166 169 173 172 173 177 183 182 186 195 202 211 229 244 251 250 259
179 166 166 162 159 156 108 109 119 103 137 151 132 134 163 224 217 181 172 177 170 149 216 220 226 216 232 218 206 208 191 178 167 144 148 160 171 170 171 172 171 171 173 179 181 189 202 214 229 241 243 242 243 247
161 168 159 155 146 107 117 135 108 128 127 147 152 125 199 169 165 151 169 163 157 216 234 234 240 233 227 212 190 188 175 176 172 169 163 162 170 173 172 174 176 181 184 189 195 201 214 224 237 244 247 243 241 245
144 158 157 157 122 77 77 111 129 127 116 135 117 174 204 186 150 160 152 156 204 220 213 219 220 211 195 188 163 161 168 170 173 171 169 166 167 175 179 179 180 183 187 196 202 210 221 233 242 247 247 245 247 256
152 146 157 140 103 72 118 150 124 163 145 149 172 184 196 170 164 148 163 202 210 211 213 215 198 186 180 161 150 152 162 166 162 167 167 172 175 181 184 185 188 192 197 203 210 217 225 234 243 250 250 251 257 268
150 128 123 134 95 115 151 172 158 169 151 161 163 158 165 124 159 211 198 187 194 197 192 192 184 166 160 155 150 155 159 163 161 161 166 170 174 177 182 187 193 200 208 217 216 215 227 247 253 254 257 263 272 283
137 147 141 144 154 145 137 142 184 194 124 141 132 149 163 147 195 206 219 194 176 190 193 188 184 181 168 159 159 160 159 164 164 161 165 176 178 175 176 184 193 202 206 202 205 220 236 242 248 257 267 277 287 296
146 185 173 161 165 172 167 151 183 147 112 116 110 106 132 179 181 228 212 194 188 189 191 189 183 179 173 168 163 165 164 163 162 164 165 171 178 187 186 186 185 186 191 197 207 218 228 240 254 269 283 293 300 308
141 159 157 208 166 122 100 72 85 100 145 169 155 169 163 193 225 204 167 176 186 191 196 189 185 181 170 172 170 165 166 167 171 175 177 177 178 172 172 175 172 176 181 188 202 222 242 260 273 285 296 305 312 321
123 175 177 173 117 80 109 126 162 184 165 156 144 175 179 201 201 168 180 185 174 176 183 186 185 182 178 173 175 174 171 174 174 172 169 167 164 164 165 167 173 176 188 207 228 243 257 273 288 300 308 319 329 334
115 133 122 65 65 78 127 188 157 106 136 173 182 147 160 165 172 174 178 186 173 173 174 175 174 177 179 179 176 177 183 182 178 169 169 165 164 164 167 172 182 194 203 213 230 252 274 285 295 320 342 343 343 346
123 152 94 74 99 107 49 54 88 124 128 139 123 107 99 87 80 170 169 164 163 165 172 175 175 174 175 175 176 177 179 179 180 179 170 171 167 169 173 181 188 194 206 218 231 236 207 136 93 33 13 7 5 4
131 105 81 50 87 74 103 110 109 117 116 83 84 93 101 97 84 127 153 155 157 161 166 171 175 177 182 184 183 174 168 167 165 167 168 169 169 171 176 181 189 197 201 197 182 163 146 129 89 55 40 37 33 33
95 121 150 128 103 130 116 84 92 85 86 76 74 100 110 76 62 150 166 161 164 170 174 176 176 177 182 181 175 168 163 160 161 164 165 167 167 169 175 184 188 186 176 165 159 154 145 129 109 97 87 83 67 41
106 102 110 113 117 175 179 151 95 86 62 76 84 137 141 141 141 177 176 174 174 178 177 177 175 172 167 165 161 159 161 161 160 161 163 163 166 170 175 175 172 167 162 159 157 151 140 129 120 114 105 83 61 45